Wind_Speed
17 16 16 14 13 13 12 12 11 11 10 9 9 9 9 9 9 8 8 8 8 8 9 9 10 10 11 11 12 12 12 13 13 14 14 14 14 15 15 15 15 16 16
18 17 17 16 15 15 14 14 13 12 12 11 11 11 11 10 10 10 10 10 10 11 11 11 12 12 13 13 14 14 14 15 15 15 16 16 16 16 16 17 17 17 18
19 19 18 18 17 17 16 16 15 14 14 13 13 13 12 12 12 12 12 12 12 13 13 13 13 14 14 15 15 16 16 16 17 17 17 17 17 18 18 18 18 19 19
20 20 19 19 18 18 17 17 16 16 15 15 15 14 14 14 14 14 14 14 14 15 15 15 16 16 16 17 17 17 17 17 18 18 18 19 19 20 20 20 21 21 21
22 21 21 20 19 19 18 18 18 17 17 17 17 16 16 16 16 16 16 16 17 17 17 17 18 18 18 19 19 19 19 19 19 20 20 20 21 21 22 22 23 23 23
23 23 22 21 21 20 20 19 19 19 19 18 18 18 18 18 18 18 18 18 19 19 19 19 19 20 20 20 20 20 20 20 21 21 21 22 23 23 24 24 25 25 25
25 24 23 23 22 22 21 21 20 20 20 20 20 20 20 20 20 20 20 20 20 20 21 21 21 21 21 21 21 21 22 22 22 23 23 24 24 25 25 26 26 27 27
27 26 25 24 24 23 23 22 22 22 21 21 21 21 21 21 21 21 21 21 22 22 22 22 22 22 23 23 23 23 23 23 24 24 25 25 26 26 27 28 28 28 28
28 27 27 26 25 25 24 24 23 23 22 22 22 22 22 22 22 22 22 23 23 23 23 23 23 23 24 24 24 25 25 26 26 27 27 27 28 28 29 29 29 30 30
30 29 28 27 27 26 26 25 24 24 24 23 23 23 23 23 23 23 23 24 24 24 24 24 24 24 25 25 26 26 27 28 28 28 28 29 29 30 31 31 31 31 32
31 30 29 29 28 28 27 27 26 26 25 25 24 24 24 24 24 24 24 24 24 24 24 24 25 26 26 27 27 28 29 29 29 29 30 30 31 32 32 33 33 34 34
32 32 31 30 30 29 29 28 27 27 26 26 26 25 25 25 26 26 25 25 25 26 26 26 26 27 28 28 29 30 30 31 31 31 32 32 33 33 34 34 35 36 36
33 33 32 31 31 30 30 29 29 28 27 27 27 27 27 27 27 27 26 26 26 27 27 27 28 29 29 30 31 31 31 32 32 32 33 34 34 34 35 36 36 37 37
34 34 33 32 32 31 31 30 30 29 28 28 28 28 28 28 28 27 27 27 28 28 28 29 30 31 31 32 32 32 32 33 33 34 34 35 35 36 37 37 37 38 38
35 34 34 33 32 32 31 31 30 29 29 29 29 29 29 29 29 29 29 29 29 29 30 31 31 32 32 32 32 33 33 34 35 35 36 36 36 37 37 37 38 38 38
36 35 34 34 33 33 32 32 31 30 30 30 30 30 30 31 30 30 30 30 30 31 31 31 31 32 32 32 33 34 34 35 35 35 36 37 37 37 37 37 37 38 38
36 35 35 34 33 33 33 32 32 31 31 31 31 31 31 31 31 31 31 31 31 31 31 32 32 32 32 33 34 34 34 35 35 36 37 36 36 37 37 36 36 37 37
36 36 35 34 34 34 33 33 33 32 32 32 32 32 32 32 32 32 32 32 32 32 32 33 33 33 33 34 34 35 35 36 36 37 37 37 37 36 36 36 36 36 37
37 37 36 36 35 35 34 34 33 33 33 32 32 32 32 32 32 32 33 33 33 33 33 33 33 34 34 35 35 35 36 36 36 37 37 37 37 36 35 36 36 37 38
38 37 37 36 36 36 35 35 34 33 33 32 32 32 32 32 33 33 33 33 32 33 33 34 34 34 35 35 35 36 36 36 36 36 36 36 36 36 36 37 37 38 38
38 37 37 37 36 36 35 35 35 34 34 33 33 33 32 32 33 33 33 33 32 33 33 33 34 34 35 35 35 35 35 35 36 36 36 36 36 37 37 37 38 38 38
38 38 37 37 36 36 35 35 35 35 34 34 34 33 33 33 33 32 31 32 33 33 33 34 34 35 35 35 35 35 34 34 35 36 35 36 36 37 38 38 38 38 38
38 38 37 37 36 36 35 35 35 35 35 34 34 34 34 34 34 33 33 32 32 33 34 34 34 34 34 34 34 34 34 33 33 34 34 35 35 36 37 38 38 38 38
39 38 37 37 37 36 36 35 35 34 34 34 34 34 34 33 33 33 33 34 33 33 34 33 33 32 32 33 33 33 33 33 33 32 33 34 35 36 37 37 37 38 38
39 38 38 37 37 37 36 35 35 35 34 34 33 33 33 33 33 34 34 34 34 34 33 32 32 32 32 32 32 32 32 33 33 33 33 33 34 35 36 37 37 37 37
40 39 39 38 37 37 36 35 35 35 34 34 34 33 32 33 33 33 33 34 34 34 33 32 32 33 33 33 33 33 33 33 33 34 34 33 34 35 36 36 37 36 36
Wind_Direction
229 229 229 228 228 228 229 231 233 237 237 238 242 248 252 255 258 260 264 269 275 280 286 289 292 293 293 293 294 293 293 294 295 296 297 297 298 297 296 295 295 294 293
231 231 231 230 230 231 232 234 236 240 242 244 246 249 255 258 260 262 266 270 275 280 284 288 290 291 291 292 293 292 292 292 293 294 294 295 295 294 294 293 293 292 291
233 232 232 232 232 233 235 237 239 241 245 247 249 251 254 258 261 263 267 271 275 278 282 285 287 288 289 289 290 291 291 291 292 292 292 292 293 293 293 292 292 292 292
235 234 233 234 234 235 237 238 241 243 246 249 251 254 256 259 262 264 268 271 274 278 280 282 283 285 287 287 289 290 290 290 290 291 291 290 290 291 291 291 291 291 291
235 235 235 235 235 235 237 239 241 245 248 250 252 255 258 261 264 267 270 272 275 277 279 281 282 284 286 287 288 289 289 289 289 289 289 289 289 290 290 290 290 291 290
235 235 235 235 235 237 238 241 243 246 249 251 253 256 259 262 264 267 269 272 274 276 278 280 282 283 285 286 286 287 287 288 288 288 288 288 289 290 290 290 290 290 290
234 234 234 235 236 238 241 243 245 248 250 253 255 257 259 261 264 266 269 271 274 276 278 279 281 282 283 284 285 285 286 287 288 288 288 289 289 290 290 290 290 289 289
234 235 235 236 237 240 242 245 247 249 251 254 256 257 259 262 264 267 269 272 274 275 277 278 279 280 282 283 284 285 286 287 287 288 288 289 289 290 290 290 289 289 288
234 235 236 237 239 241 243 245 247 250 252 254 256 257 260 262 265 267 269 271 272 274 276 277 278 280 281 282 283 284 285 286 287 287 287 288 288 288 289 289 288 287 287
234 235 236 238 239 241 243 245 247 250 252 253 256 258 260 263 265 267 269 271 272 274 276 277 278 280 281 282 283 284 285 286 287 287 287 287 287 287 288 287 287 287 287
234 235 236 238 240 242 244 246 248 250 251 253 256 258 261 263 265 267 269 271 273 274 276 277 279 280 281 282 283 284 285 286 286 286 287 287 287 287 287 286 286 286 286
233 235 236 238 240 242 244 247 249 251 252 254 256 259 261 263 266 268 269 271 273 274 276 277 279 280 281 282 284 284 285 285 286 286 287 287 287 287 287 286 285 284 284
234 235 237 239 241 243 244 246 248 250 252 255 257 260 262 263 265 267 269 271 273 274 276 278 279 281 282 283 284 284 285 286 287 287 287 288 288 287 287 286 285 285 284
235 236 237 239 241 243 244 246 248 250 253 255 258 259 261 263 265 266 269 271 273 275 277 279 280 281 283 283 284 285 285 286 287 288 288 289 288 287 286 286 286 285 284
236 236 237 240 241 243 244 246 249 251 253 255 258 260 262 263 264 267 269 271 274 276 278 280 281 282 282 283 284 285 286 287 288 288 289 289 289 288 287 287 286 285 284
236 237 238 240 241 243 245 247 249 252 254 256 258 260 262 263 265 267 270 272 274 277 279 280 281 281 282 283 284 285 287 288 288 289 290 290 289 288 288 287 287 286 285
236 237 239 240 241 243 246 248 250 252 254 256 257 259 261 263 264 267 270 272 274 277 278 280 281 281 283 285 285 286 287 288 289 290 290 290 290 289 288 288 288 287 286
236 238 239 241 242 244 247 249 251 253 255 256 258 260 261 263 265 266 269 271 274 276 278 280 280 282 283 285 286 287 288 289 289 290 290 290 290 289 289 289 288 287 287
236 238 240 241 243 245 247 249 251 254 255 257 258 260 262 263 265 267 268 270 273 276 278 280 281 282 283 284 286 288 289 290 290 290 291 291 290 289 289 290 289 289 289
236 238 240 242 244 246 248 250 252 254 255 257 258 260 263 264 266 267 269 271 274 276 278 280 281 282 283 285 287 289 290 290 290 291 291 291 290 290 290 290 290 290 290
236 237 239 242 244 247 249 251 252 254 255 257 259 261 263 266 267 268 270 271 274 276 279 281 282 283 284 285 287 288 289 290 291 291 292 292 292 291 291 292 291 291 291
236 238 239 241 244 246 248 250 252 253 255 257 259 261 262 265 267 270 272 273 275 277 279 281 282 283 284 285 286 287 288 289 290 292 293 293 293 293 294 294 293 292 291
236 237 239 242 244 245 247 249 251 253 255 257 258 261 263 265 267 269 271 274 277 278 281 282 282 283 284 285 288 289 289 288 289 292 293 294 295 295 296 296 295 293 292
237 238 240 242 244 245 246 248 250 252 254 256 258 260 262 263 266 269 271 274 277 280 282 282 282 282 284 287 288 289 289 289 290 291 293 295 296 296 297 297 296 295 293
237 238 240 242 243 244 245 247 249 251 254 256 258 260 261 262 265 268 271 274 277 279 281 281 280 282 284 287 288 289 289 289 291 292 292 295 297 297 298 299 298 297 295
238 239 240 242 243 244 245 247 250 252 254 256 258 260 261 263 266 268 271 274 277 278 280 281 281 282 285 287 288 289 289 289 291 293 293 296 298 299 299 300 299 299 297
Height
5870 5872 5873 5874 5875 5876 5877 5878 5878 5879 5880 5880 5881 5881 5881 5881 5881 5881 5881 5880 5880 5880 5879 5879 5878 5878 5877 5877 5876 5875 5875 5874 5873 5872 5871 5870 5869 5868 5867 5866 5865 5864 5863
5868 5869 5870 5872 5873 5874 5875 5876 5877 5877 5878 5878 5879 5879 5879 5879 5879 5879 5879 5879 5878 5878 5877 5877 5876 5876 5875 5874 5874 5873 5872 5872 5871 5870 5869 5868 5867 5866 5864 5863 5862 5861 5860
5865 5866 5867 5869 5870 5871 5872 5873 5874 5875 5876 5876 5877 5877 5877 5877 5877 5877 5877 5876 5876 5876 5875 5875 5874 5873 5873 5872 5871 5871 5870 5869 5868 5867 5866 5865 5864 5863 5862 5860 5859 5858 5857
5861 5863 5864 5866 5867 5868 5870 5871 5872 5873 5873 5874 5874 5875 5875 5875 5875 5875 5874 5874 5874 5873 5873 5872 5871 5871 5870 5869 5868 5868 5867 5866 5865 5864 5863 5861 5860 5859 5858 5857 5856 5855 5853
5858 5860 5861 5863 5864 5865 5867 5868 5869 5870 5871 5871 5872 5872 5872 5872 5872 5872 5871 5871 5871 5870 5870 5869 5868 5868 5867 5866 5865 5864 5863 5863 5861 5860 5859 5858 5857 5856 5854 5853 5852 5851 5849
5854 5856 5858 5859 5861 5862 5863 5864 5866 5867 5867 5868 5868 5869 5869 5869 5869 5869 5868 5868 5867 5867 5866 5866 5865 5864 5863 5863 5862 5861 5860 5859 5858 5856 5855 5854 5853 5852 5850 5849 5848 5846 5845
5850 5852 5853 5855 5857 5858 5860 5861 5862 5863 5864 5864 5865 5865 5865 5865 5865 5865 5865 5864 5864 5863 5863 5862 5861 5861 5860 5859 5858 5857 5856 5855 5853 5852 5851 5850 5849 5847 5846 5844 5843 5841 5840
5845 5847 5849 5851 5853 5854 5856 5857 5858 5859 5860 5861 5861 5861 5862 5862 5862 5861 5861 5861 5860 5860 5859 5858 5857 5857 5856 5855 5854 5853 5852 5850 5849 5848 5846 5845 5844 5842 5841 5839 5838 5836 5835
5840 5842 5844 5846 5848 5850 5851 5853 5854 5855 5856 5856 5857 5857 5858 5858 5858 5857 5857 5857 5856 5855 5855 5854 5853 5852 5851 5850 5849 5848 5847 5846 5844 5843 5841 5840 5838 5837 5835 5834 5832 5830 5829
5835 5838 5840 5842 5843 5845 5847 5848 5849 5850 5851 5852 5853 5853 5853 5854 5853 5853 5853 5852 5852 5851 5850 5849 5849 5848 5847 5846 5845 5843 5842 5841 5839 5837 5836 5834 5833 5831 5829 5827 5826 5824 5823
5830 5832 5834 5837 5839 5840 5842 5843 5845 5846 5847 5847 5848 5848 5849 5849 5849 5848 5848 5848 5847 5846 5846 5845 5844 5843 5842 5840 5839 5838 5836 5835 5833 5832 5830 5828 5826 5824 5823 5821 5819 5817 5816
5824 5826 5829 5831 5833 5835 5837 5838 5840 5841 5842 5843 5843 5844 5844 5844 5844 5844 5843 5843 5842 5842 5841 5840 5839 5837 5836 5835 5833 5832 5830 5828 5827 5825 5823 5821 5819 5817 5815 5813 5811 5810 5808
5817 5820 5823 5825 5828 5830 5831 5833 5834 5836 5837 5838 5838 5838 5839 5839 5839 5838 5838 5838 5837 5836 5835 5834 5833 5832 5830 5829 5827 5825 5823 5821 5820 5818 5816 5814 5812 5810 5807 5805 5803 5801 5800
5811 5814 5817 5819 5822 5824 5826 5827 5829 5830 5831 5832 5833 5833 5833 5833 5833 5833 5833 5832 5832 5831 5830 5828 5827 5825 5824 5822 5820 5818 5816 5815 5813 5810 5808 5806 5804 5801 5799 5797 5795 5793 5791
5805 5808 5811 5813 5816 5818 5820 5822 5823 5824 5825 5826 5827 5827 5827 5828 5828 5828 5827 5827 5826 5825 5824 5822 5821 5819 5817 5815 5813 5811 5809 5807 5805 5803 5801 5798 5796 5793 5791 5788 5786 5784 5782
5799 5801 5804 5807 5810 5812 5814 5815 5817 5818 5819 5820 5821 5821 5821 5822 5822 5822 5821 5821 5820 5819 5817 5815 5814 5812 5810 5808 5806 5804 5802 5800 5797 5795 5793 5790 5787 5785 5782 5780 5777 5775 5773
5792 5795 5798 5801 5803 5805 5807 5809 5811 5812 5813 5814 5814 5815 5815 5815 5815 5815 5815 5814 5813 5812 5811 5809 5807 5806 5804 5802 5799 5797 5795 5792 5790 5787 5784 5782 5779 5776 5774 5771 5769 5766 5764
5785 5788 5791 5794 5797 5799 5801 5803 5804 5805 5806 5807 5808 5808 5809 5809 5809 5809 5808 5808 5807 5806 5804 5803 5801 5799 5797 5795 5792 5790 5787 5785 5782 5779 5776 5773 5770 5768 5765 5763 5760 5758 5755
5778 5781 5784 5787 5789 5792 5794 5796 5797 5799 5800 5800 5801 5801 5801 5802 5802 5802 5801 5801 5800 5799 5797 5796 5794 5792 5790 5788 5785 5782 5780 5777 5774 5771 5768 5765 5762 5759 5757 5754 5752 5749 5746
5770 5774 5777 5779 5782 5784 5787 5789 5790 5791 5792 5793 5794 5795 5795 5795 5795 5795 5794 5793 5793 5791 5790 5788 5786 5784 5782 5780 5778 5775 5772 5769 5766 5763 5760 5757 5754 5751 5748 5745 5743 5740 5737
5763 5766 5769 5772 5775 5777 5779 5781 5783 5784 5785 5786 5787 5788 5788 5788 5788 5787 5787 5786 5785 5784 5783 5781 5779 5777 5774 5772 5770 5767 5764 5761 5758 5755 5752 5749 5746 5742 5739 5736 5733 5730 5728
5755 5758 5762 5764 5767 5769 5772 5774 5775 5777 5778 5779 5780 5780 5781 5781 5780 5780 5779 5779 5778 5777 5775 5773 5771 5769 5766 5764 5762 5759 5757 5754 5750 5747 5744 5740 5737 5734 5730 5727 5724 5720 5718
5747 5750 5754 5757 5759 5762 5764 5766 5767 5769 5770 5771 5772 5773 5773 5773 5773 5773 5772 5771 5770 5769 5767 5765 5763 5761 5759 5756 5754 5751 5749 5746 5743 5740 5736 5732 5729 5725 5721 5718 5714 5711 5708
5739 5742 5745 5748 5751 5753 5756 5758 5760 5761 5763 5764 5765 5765 5766 5766 5765 5765 5764 5764 5763 5761 5759 5757 5755 5753 5751 5749 5746 5744 5741 5738 5735 5733 5730 5726 5722 5717 5713 5709 5705 5702 5699
5730 5734 5737 5740 5743 5745 5748 5750 5752 5754 5755 5756 5757 5757 5758 5758 5758 5757 5756 5756 5755 5753 5752 5750 5748 5746 5744 5742 5739 5737 5734 5731 5728 5725 5723 5719 5715 5710 5705 5701 5697 5693 5690
5721 5725 5728 5732 5734 5737 5739 5742 5744 5745 5747 5748 5749 5749 5750 5750 5750 5749 5748 5748 5747 5745 5744 5742 5740 5739 5737 5734 5732 5729 5727 5724 5721 5717 5715 5712 5708 5703 5698 5693 5689 5685 5681